Flag for U.S.A. Weather past 2 weeks in Santa Clarita, California, U.S.A.

Now
67 °F

Clear.


Feels Like: 67 °F
Forecast: 65 / 93 °F
Wind: No wind

Location: Van Nuys Airport

Current Time: Aug 2, 2015 at 7:39:42 AM

Latest Report: Aug 2, 2015 at 6:51 AM


Visibility: 10 mi

Pressure: 29.88 "Hg

Humidity: 81%

Dew point: 61 °F

Location of Santa ClaritaLocation

Historic Weather in Santa Clarita — Graph

°F

Santa Clarita temperature yesterday

Maximum temperature yesterday: 91 °F (at 2:51 PM)
Minimum temperature yesterday: 66 °F (at 4:51 AM)
Average temperature yesterday: 76 °F

Past Weeks' High & Low Weather Summary

 TemperatureHumidityPressure
High96 °F (Jul 31, 3:51 PM)93% (Jul 18, 7:51 PM)30.07 "Hg (Jul 18, 7:51 PM)
Low64 °F (Jul 18, 3:51 PM)20% (Jul 25, 4:51 PM)29.79 "Hg (Jul 28, 5:51 PM)
Average77 °F62%29.92 "Hg
* Reported Jul 18 5:51 AM — Aug 2 5:51 AM, Santa Clarita, Weather by CustomWeather, © 2015

Note: Actual official high and low records may vary slightly from our data, if they occured in-between our weather recording intervals... More about our weather records

Advertising

Santa Clarita weather history for previous 24 hours

 ConditionsComfort  
Time TempWeatherWind HumidityBarometerVisibility
5:51 AM
Sun, Aug 2
67 °FClear.No wind81%29.86 "Hg10 mi
4:51 AM67 °FClear.No wind81%29.86 "Hg10 mi
3:51 AM68 °FClear.No wind78%29.86 "Hg10 mi
2:51 AM68 °FClear.3 mph78%29.87 "Hg10 mi
1:51 AM69 °FClear.No wind76%29.88 "Hg10 mi
12:51 AM69 °FClear.3 mph76%29.88 "Hg10 mi
11:51 PM
Sat, Aug 1
70 °FClear.No wind76%29.90 "Hg10 mi
10:51 PM71 °FClear.6 mph73%29.90 "Hg10 mi
9:51 PM72 °FClear.6 mph71%29.90 "Hg10 mi
8:51 PM74 °FSunny.7 mph69%29.88 "Hg10 mi
7:51 PM77 °FScattered clouds.6 mph62%29.86 "Hg10 mi
6:51 PM83 °FSunny.7 mph51%29.85 "Hg10 mi
5:51 PM88 °FSunny.9 mph43%29.84 "Hg10 mi
4:51 PM88 °FSunny.10 mph40%29.85 "Hg10 mi
3:51 PM89 °FScattered clouds.12 mph41%29.85 "Hg10 mi
2:51 PM91 °FScattered clouds.12 mph39%29.86 "Hg10 mi
1:51 PM90 °FSunny.7 mph39%29.88 "Hg10 mi
12:51 PM87 °FSunny.5 mph40%29.90 "Hg10 mi
11:51 AM83 °FSunny.No wind46%29.93 "Hg10 mi
10:51 AM77 °FSunny.3 mph60%29.95 "Hg10 mi
9:51 AM72 °FHaze.No wind71%29.96 "Hg6 mi
8:51 AM69 °FOvercast.6 mph79%29.97 "Hg7 mi
7:51 AM67 °FFog.No wind87%29.96 "Hg5 mi
Weather by CustomWeather, © 2015

See weather overviewHow to use our weather pages